Location: Perugia
(43.1330°N, 12.3670°E)
Time: 22:19:15
(UTC+01:00)

ISS - Pass Details

Date: 08 December 2022
Orbit: 412 x 423 km, 51.6° (Epoch: 07 February)

Event Time Altitude Azimuth Distance (km) Brightness Sun altitude
Rises 16:58:49 0° 300° (WNW) 2,346 0.5 -4.6°
Reaches altitude 10° 17:00:56 10° 295° (WNW) 1,482 -0.4 -4.9°
Maximum altitude 17:04:10 51° 218° (SW) 524 -2.8 -5.5°
Drops below altitude 10° 17:07:24 10° 141° (SE) 1,480 -1.1 -6.0°
Sets 17:09:31 0° 137° (SE) 2,342 -0.1 -6.3°
